When you browse on this site, cookies collect data to enhance your experience and personalize the content and advertising you see.
Visit our Privacy Policy to learn more. By continuing to use the site, you agree to this use of cookies and data.
  • In Hungary
  • List of Countries
  • For 7 days
  • Water Temperature
  • Weather Map
  • News
  • Weather Widgets
  • user-avatar
    Login

    Hourly Weather Louangphabang

    Today, 8 December, Sunday

    Time Temperature Precipitation Wind Pressure Humidity
    00:00 +8°C° 0 mm 1 mps 702 mmHg 61%
    01:00 +8°C° 0 mm 1 mps 702 mmHg 63%
    02:00 +7°C° 0 mm 1 mps 703 mmHg 65%
    03:00 +7°C° 0 mm 1 mps 703 mmHg 67%
    04:00 +6°C° 0 mm 1 mps 703 mmHg 69%
    05:00 +6°C° 0 mm 1 mps 703 mmHg 70%
    06:00 +6°C° 0 mm 1 mps 703 mmHg 70%
    07:00 +6°C° 0 mm 1 mps 704 mmHg 72%
    08:00 +9°C° 0 mm 1 mps 704 mmHg 61%
    09:00 +12°C° 0 mm 1 mps 705 mmHg 49%
    10:00 +16°C° 0 mm 1 mps 705 mmHg 37%
    11:00 +18°C° 0 mm 1 mps 704 mmHg 33%
    12:00 +20°C° 0 mm 1 mps 703 mmHg 29%
    13:00 +22°C° 0 mm 1 mps 703 mmHg 25%
    14:00 +21°C° 0 mm 1 mps 702 mmHg 27%
    15:00 +21°C° 0 mm 1 mps 702 mmHg 29%
    16:00 +21°C° 0 mm 1 mps 701 mmHg 31%
    17:00 +18°C° 0 mm 1 mps 701 mmHg 39%
    18:00 +13°C° 0 mm 0 mps 701 mmHg 47%
    19:00 +10°C° 0 mm 0 mps 701 mmHg 55%
    20:00 +10°C° 0 mm 0 mps 701 mmHg 55%
    21:00 +9°C° 0 mm 0 mps 702 mmHg 55%
    22:00 +9°C° 0 mm 0 mps 702 mmHg 55%
    23:00 +8°C° 0 mm 0 mps 702 mmHg 56%

    Tomorrow, 9 December, Monday

    Time Temperature Precipitation Wind Pressure Humidity
    00:00 +8°C° 0 mm 0 mps 702 mmHg 58%
    01:00 +7°C° 0 mm 0 mps 702 mmHg 59%
    02:00 +7°C° 0 mm 0 mps 702 mmHg 62%
    03:00 +7°C° 0 mm 0 mps 702 mmHg 64%
    04:00 +6°C° 0 mm 0 mps 702 mmHg 66%
    05:00 +6°C° 0 mm 0 mps 702 mmHg 68%
    06:00 +6°C° 0 mm 0 mps 702 mmHg 69%
    07:00 +6°C° 0 mm 0 mps 703 mmHg 71%
    08:00 +10°C° 0 mm 1 mps 703 mmHg 61%
    09:00 +13°C° 0 mm 1 mps 704 mmHg 51%
    10:00 +18°C° 0 mm 1 mps 704 mmHg 41%
    11:00 +19°C° 0 mm 1 mps 703 mmHg 37%
    12:00 +21°C° 0 mm 1 mps 702 mmHg 34%
    13:00 +22°C° 0 mm 1 mps 702 mmHg 30%
    14:00 +22°C° 0 mm 1 mps 701 mmHg 32%
    15:00 +22°C° 0 mm 1 mps 701 mmHg 33%
    16:00 +22°C° 0 mm 1 mps 700 mmHg 34%
    17:00 +19°C° 0 mm 1 mps 700 mmHg 43%
    18:00 +14°C° 0 mm 0 mps 700 mmHg 51%
    19:00 +11°C° 0 mm 0 mps 699 mmHg 59%
    20:00 +10°C° 0 mm 0 mps 700 mmHg 60%
    21:00 +10°C° 0 mm 0 mps 700 mmHg 60%
    22:00 +9°C° 0 mm 0 mps 700 mmHg 60%
    23:00 +9°C° 0 mm 0 mps 700 mmHg 60%

    Day after tomorrow, 10 December, Tuesday

    Time Temperature Precipitation Wind Pressure Humidity
    00:00 +8°C° 0 mm 0 mps 700 mmHg 61%
    01:00 +8°C° 0 mm 0 mps 700 mmHg 61%
    02:00 +8°C° 0 mm 0 mps 699 mmHg 62%
    03:00 +7°C° 0 mm 0 mps 699 mmHg 63%
    04:00 +7°C° 0 mm 0 mps 699 mmHg 63%
    05:00 +7°C° 0 mm 0 mps 700 mmHg 64%
    06:00 +6°C° 0 mm 0 mps 700 mmHg 64%
    07:00 +6°C° 0 mm 0 mps 700 mmHg 65%
    08:00 +10°C° 0 mm 0 mps 701 mmHg 55%
    09:00 +14°C° 0 mm 0 mps 701 mmHg 46%
    10:00 +17°C° 0 mm 0 mps 702 mmHg 37%
    11:00 +19°C° 0 mm 0 mps 701 mmHg 34%
    12:00 +22°C° 0 mm 1 mps 701 mmHg 32%
    13:00 +24°C° 0 mm 1 mps 700 mmHg 29%
    14:00 +23°C° 0 mm 1 mps 699 mmHg 31%
    15:00 +23°C° 0 mm 1 mps 699 mmHg 34%
    16:00 +22°C° 0 mm 1 mps 698 mmHg 36%
    17:00 +20°C° 0 mm 1 mps 698 mmHg 44%
    18:00 +15°C° 0 mm 0 mps 698 mmHg 51%
    19:00 +12°C° 0 mm 0 mps 698 mmHg 59%
    20:00 +11°C° 0 mm 0 mps 698 mmHg 60%
    21:00 +11°C° 0 mm 0 mps 698 mmHg 61%
    22:00 +10°C° 0 mm 0 mps 699 mmHg 61%
    23:00 +10°C° 0 mm 0 mps 699 mmHg 63%

    11 December, Wednesday

    Time Temperature Precipitation Wind Pressure Humidity
    00:00 +9°C° 0 mm 0 mps 699 mmHg 65%
    01:00 +9°C° 0 mm 0 mps 699 mmHg 66%
    02:00 +9°C° 0 mm 0 mps 699 mmHg 68%
    03:00 +8°C° 0 mm 0 mps 699 mmHg 70%
    04:00 +8°C° 0 mm 0 mps 699 mmHg 72%
    05:00 +8°C° 0 mm 0 mps 699 mmHg 73%
    06:00 +8°C° 0 mm 0 mps 699 mmHg 74%
    07:00 +8°C° 0 mm 0 mps 700 mmHg 75%
    08:00 +11°C° 0 mm 0 mps 700 mmHg 64%
    09:00 +15°C° 0 mm 0 mps 701 mmHg 53%
    10:00 +18°C° 0 mm 0 mps 702 mmHg 42%
    11:00 +22°C° 0 mm 1 mps 701 mmHg 39%
    12:00 +23°C° 0 mm 1 mps 700 mmHg 36%
    13:00 +25°C° 0 mm 1 mps 700 mmHg 33%
    14:00 +24°C° 0 mm 1 mps 699 mmHg 35%
    15:00 +24°C° 0 mm 1 mps 699 mmHg 37%
    16:00 +24°C° 0 mm 1 mps 698 mmHg 38%
    17:00 +21°C° 0 mm 1 mps 698 mmHg 47%
    18:00 +16°C° 0 mm 0 mps 698 mmHg 56%
    19:00 +13°C° 0 mm 0 mps 698 mmHg 65%
    20:00 +13°C° 0 mm 0 mps 699 mmHg 65%
    21:00 +12°C° 0 mm 0 mps 699 mmHg 66%
    22:00 +12°C° 0 mm 0 mps 699 mmHg 67%
    23:00 +11°C° 0 mm 0 mps 699 mmHg 69%

    12 December, Thursday

    Time Temperature Precipitation Wind Pressure Humidity
    00:00 +11°C° 0 mm 0 mps 699 mmHg 71%
    01:00 +10°C° 0 mm 0 mps 699 mmHg 73%
    02:00 +10°C° 0 mm 0 mps 699 mmHg 74%
    03:00 +9°C° 0 mm 0 mps 699 mmHg 76%
    04:00 +9°C° 0 mm 0 mps 699 mmHg 78%
    05:00 +9°C° 0 mm 0 mps 700 mmHg 78%
    06:00 +8°C° 0 mm 0 mps 700 mmHg 78%
    07:00 +8°C° 0 mm 0 mps 701 mmHg 79%
    08:00 +12°C° 0 mm 0 mps 701 mmHg 67%
    09:00 +16°C° 0 mm 1 mps 702 mmHg 56%
    10:00 +20°C° 0 mm 1 mps 702 mmHg 44%
    11:00 +22°C° 0 mm 1 mps 702 mmHg 41%
    12:00 +24°C° 0 mm 1 mps 701 mmHg 37%
    13:00 +25°C° 0 mm 1 mps 700 mmHg 33%
    14:00 +25°C° 0 mm 1 mps 700 mmHg 35%
    15:00 +25°C° 0 mm 1 mps 699 mmHg 37%
    16:00 +24°C° 0 mm 1 mps 699 mmHg 39%
    17:00 +22°C° 0 mm 1 mps 699 mmHg 49%
    18:00 +17°C° 0 mm 0 mps 699 mmHg 58%
    19:00 +14°C° 0 mm 0 mps 699 mmHg 68%
    20:00 +13°C° 0 mm 0 mps 699 mmHg 70%
    21:00 +13°C° 0 mm 0 mps 700 mmHg 71%
    22:00 +12°C° 0 mm 0 mps 700 mmHg 73%
    23:00 +12°C° 0 mm 0 mps 700 mmHg 75%

    13 December, Friday

    Time Temperature Precipitation Wind Pressure Humidity
    00:00 +11°C° 0 mm 0 mps 700 mmHg 77%
    01:00 +11°C° 0 mm 0 mps 700 mmHg 80%
    02:00 +10°C° 0 mm 0 mps 700 mmHg 82%
    03:00 +10°C° 0 mm 0 mps 699 mmHg 83%
    04:00 +10°C° 0 mm 0 mps 699 mmHg 85%
    05:00 +10°C° 0 mm 0 mps 700 mmHg 85%
    06:00 +9°C° 0 mm 0 mps 700 mmHg 86%
    07:00 +9°C° 0 mm 0 mps 701 mmHg 87%
    08:00 +14°C° 0 mm 1 mps 701 mmHg 74%
    09:00 +18°C° 0 mm 1 mps 702 mmHg 61%
    10:00 +21°C° 0 mm 1 mps 702 mmHg 48%
    11:00 +23°C° 0 mm 1 mps 702 mmHg 44%
    12:00 +25°C° 0 mm 1 mps 701 mmHg 39%
    13:00 +26°C° 0 mm 1 mps 700 mmHg 35%
    14:00 +26°C° 0 mm 1 mps 700 mmHg 37%
    15:00 +26°C° 0 mm 1 mps 699 mmHg 39%
    16:00 +25°C° 0 mm 1 mps 699 mmHg 41%
    17:00 +22°C° 0 mm 1 mps 699 mmHg 51%
    18:00 +18°C° 0 mm 0 mps 699 mmHg 60%
    19:00 +15°C° 0 mm 0 mps 699 mmHg 70%
    20:00 +14°C° 0 mm 0 mps 699 mmHg 72%
    21:00 +14°C° 0 mm 0 mps 699 mmHg 73%
    22:00 +13°C° 0 mm 0 mps 700 mmHg 75%
    23:00 +13°C° 0 mm 0 mps 700 mmHg 77%
    Show more